Location: Houston
(29.7630°N, 95.3630°W)
Time: 18:47:04
(UTC-06:00)

Daily predictions for brighter satellites

Satellite Brightness Start Highest point End
(mag) Time Altitude Azimuth Time Altitude Azimuth Time Altitude Azimuth
Okean 1 3.7 18:41:18 10° N 18:45:21 73° W 18:49:23 10° S
Cosmos 1602 3.9 18:44:08 10° S 18:48:00 80° W 18:51:54 10° N
Cosmos 1340 2.6 18:49:04 10° N 18:52:51 83° E 18:56:38 10° S
COSMO-SKYMED 1 4.2 18:49:19 10° N 18:53:21 38° WNW 18:57:21 10° SW
Cosmos 1741 Rocket 4.1 18:49:40 10° SSW 18:54:54 87° WNW 19:00:08 10° NNE
Resurs 01 Rocket 2.9 18:54:17 10° ESE 18:57:30 20° ENE 19:00:45 10° NNE
NOAA 12 4.1 18:55:58 10° SSE 19:01:14 71° ENE 19:06:33 10° N
Meteor 1-11 Rocket 4.0 18:56:54 10° SSW 19:02:40 77° W 19:08:35 10° N
ATLAS 2A CENTAUR R/B 2.0 19:02:21 10° WSW 19:04:33 39° S 19:10:06 11° ESE
SL-16 R/B 4.4 19:02:07 10° NW 19:06:59 30° WSW 19:11:50 10° SSW
FENGYUN 3A 4.0 19:03:48 10° SE 19:08:49 41° ENE 19:13:53 10° N
GPS 2-04 Rocket1 3.8 19:07:05 10° WNW 19:11:04 39° N 19:14:12 15° ENE
Cosmos 2333 Rocket 3.6 19:07:54 10° NNE 19:11:37 17° ENE 19:12:59 16° ENE
Okean 1 Rocket 3.8 19:11:27 10° SSW 19:15:51 57° W 19:20:16 10° N
GEOS 3 Rocket 3.6 19:11:08 10° NE 19:16:22 66° ESE 19:21:37 10° SSW
Genesis I 3.2 19:14:24 10° NNW 19:18:16 56° ENE 19:21:42 12° SE
Cosmos 1570 Rocket 4.0 19:14:55 10° N 19:20:06 64° ENE 19:25:18 10° SSE
OTV 4 1.5 19:18:19 10° W 19:21:07 37° NNW 19:22:38 21° NE
Cosmos 1238 Rocket 3.6 19:19:48 10° NNW 19:22:37 40° W 19:25:41 10° SSW
METEOR-M 4.5 19:18:06 10° S 19:23:25 69° WSW 19:28:45 10° NNW
Cosmos 2181 Rocket 4.4 19:18:25 10° N 19:24:41 69° W 19:31:00 10° S
Cosmos 1892 Rocket 4.5 19:22:24 10° NNE 19:26:03 26° E 19:26:07 26° E
Cosmos 2074 Rocket 4.0 19:20:30 10° S 19:26:44 86° E 19:33:02 10° N
Skynet4D Del rocket 3.8 19:21:29 10° WSW 19:26:49 56° S 19:29:46 25° ESE
Spot 2 Rocket 3.7 19:22:39 10° SE 19:27:26 46° ENE 19:32:15 10° N
Cosmos 1025 Rocket 3.0 19:24:05 10° N 19:28:26 60° E 19:32:46 10° SSE
Meteor 1-5 Rocket 4.4 19:24:57 10° S 19:30:55 87° W 19:36:52 10° N
USA 229 DEB 4.2 19:24:09 10° NNW 19:30:57 43° NE 19:35:24 21° ESE
USA 229 4.2 19:24:15 10° NNW 19:31:02 43° NE 19:35:25 21° ESE
Cosmos 2082 4.0 19:26:52 10° S 19:32:13 43° ESE 19:37:35 10° NE
Cosmos 2184 Rocket 4.0 19:26:52 10° S 19:33:12 87° W 19:39:30 10° N
FengYun 1-2 T 4.1 19:29:05 10° SSE 19:34:32 73° ENE 19:40:01 10° N
Hubble Space Telescope 0.8 19:33:34 10° WSW 19:37:40 70° S 19:38:56 42° ESE
Meteor 2-13 Rocket 4.3 19:31:43 10° S 19:37:41 67° E 19:43:42 10° NNE
SJ-6B 3.9 19:37:40 10° S 19:41:31 46° W 19:45:20 10° NNW
Orbus 7S 4.0 19:39:21 10° WSW 19:41:49 36° S 19:42:49 29° SSE
DELTA 2 R/B (1) 3.8 19:37:19 10° WNW 19:42:54 68° SSW 19:46:05 26° SE
Cosmos 1544 Rocket 3.4 19:39:00 10° S 19:43:16 63° E 19:47:32 10° NNE
HJ-1C 3.7 19:41:12 10° S 19:44:32 65° W 19:47:52 10° NNW
H-2A R/B 2.5 19:46:09 31° SSE 19:47:49 75° ENE 19:51:34 10° N
ALOS 2.5 19:43:14 10° S 19:47:53 70° W 19:52:32 10° NNW
GPS 2-14 Rocket1 4.5 19:45:14 10° SW 19:48:07 19° S 19:48:21 19° SSE
CZ-2D R/B 3.8 19:49:35 41° NNE 19:49:35 41° NNE 19:52:23 10° N
Cosmos 405 Rocket 3.4 19:45:38 10° N 19:48:31 39° NE 19:48:31 39° NE
Cosmos 2208 Rocket 4.4 19:45:51 10° NNW 19:51:14 68° WSW 19:56:31 10° S
Cosmos 2297 Rocket 2.2 19:47:45 10° S 19:53:16 58° ESE 19:56:25 26° NE
Cosmos 2237 Rocket 3.2 19:52:43 10° N 19:56:29 28° NE 19:56:29 28° NE
Nadezhda 3 Rocket 4.1 19:51:51 10° N 19:57:49 50° E 19:59:43 38° SE
NOSS 0 Rocket 4.1 19:52:44 10° N 19:58:37 46° ENE 19:59:13 45° E
Meteor 1-12 Rocket 4.2 19:53:16 10° S 19:59:12 66° E 20:05:05 10° NNE
Cosmos 2333 4.2 19:54:23 10° NNW 20:00:09 83° WSW 20:05:11 14° SSE
Cosmos 2341 Rocket 4.0 19:55:21 10° S 20:01:33 58° E 20:07:47 10° NNE
COSMOS 2428 3.0 19:56:23 10° NNW 20:02:01 68° WSW 20:07:39 10° S
Cosmos 2154 Rocket 3.9 19:56:19 10° S 20:02:39 83° E 20:09:01 10° N
H-2A R/B 3.3 20:00:52 10° SW 20:04:43 41° SE 20:06:25 37° ESE
KM-V1 4.4 19:58:28 10° W 20:05:05 73° N 20:05:10 73° N
Okean 2 3.8 20:03:52 10° NNW 20:07:59 63° W 20:10:33 22° S
Helios 1A 4.3 20:10:07 29° N 20:10:07 29° N 20:12:15 10° N
FUSE 4.4 20:03:09 10° W 20:08:20 49° S 20:08:58 46° SSE
Cosmos 2219 Rocket 2.0 20:04:21 10° NNW 20:09:57 74° ENE 20:10:47 62° SE
OAO 3 Rocket 3.2 20:05:57 10° WSW 20:10:54 75° NNW 20:11:09 73° NNE
Cosmos 2285 Rocket 4.0 20:05:26 10° NNW 20:11:51 80° WSW 20:17:44 12° S
Cosmos 1486 Rocket 4.0 20:07:12 10° SSW 20:12:31 80° WNW 20:16:55 15° NNE
Cosmos 2227 Rocket 2.5 20:08:08 10° SSW 20:13:44 66° WNW 20:19:22 10° NNE
Helios 1B rocket 3.0 20:10:18 10° N 20:14:23 56° WNW 20:18:25 10° SSW
Atlas Centaur 2 2.5 20:10:35 10° WSW 20:17:56 59° SSE 20:18:27 57° SE
Cosmos 1455 Rocket 3.7 20:16:27 10° SSW 20:20:44 54° W 20:25:02 10° N
BREEZE-M DEB (TANK) 3.4 20:21:34 10° NW 20:25:17 69° NE 20:25:26 69° NE
ATLAS CENTAUR R/B 4.5 20:28:46 10° W 20:30:29 12° WNW 20:31:14 12° NW
SL-16 R/B 4.5 20:28:54 10° N 20:29:17 12° N 20:29:17 12° N
Resurs 01 Rocket 3.7 20:30:08 10° SSW 20:33:46 26° W 20:37:26 10° NW
SEDSat Delta rocket 4.3 20:39:13 10° WSW 20:44:30 56° SW 20:44:30 56° SW
Cosmos 2333 Rocket 3.1 20:50:34 10° NNW 20:55:04 46° WNW 20:55:04 46° WNW
ATLAS 3B CENTAUR R/B 4.1 20:40:40 10° WSW 21:08:22 69° SSE 21:09:41 66° SE
CZ-3 Stage 3 4.2 21:25:48 10° WSW 21:45:35 52° WSW 21:45:35 52° WSW
